Location: Lafig�re
(44.4503°N, 4.0357°E)
Time: 09:16:08
(UTC+00:00)

Tiros 1 - Pass Details

Date: 29 January 2021
Orbit: 630 x 664 km, 48.4° (Epoch: 07 March)

Event Time Altitude Azimuth Distance (km) Brightness Sun altitude
Rises 20:03:21 0° 291° (WNW) 2,926 11.5 -34.7°
Reaches altitude 10° 20:05:41 10° 293° (WNW) 2,013 10.4 -35.1°
Enters shadow 20:07:08 20° 295° (WNW) 1,463 9.5 -35.3°
